This is the latest recevied weather packets stored in our database for station/object KB1RMA-13. If no packets are shown the sender has not sent any weather packets the latest 10 day(s).
| Time | Temp. | Humidity | Pressure | Rain* | Wind** | Luminosity | Snow |
|---|---|---|---|---|---|---|---|
| 1777746363 | 10.56° C | 89% | 1011.2 hPa | 0 mm | - | 165 W/m² | - |
| 1777746059 | 10° C | 89% | 1011.3 hPa | 0 mm | - | 125 W/m² | - |
| 1777745757 | 10° C | 89% | 1011.3 hPa | 0 mm | - | 151 W/m² | - |
| 1777745455 | 10° C | 89% | 1011.7 hPa | 0 mm | - | 153 W/m² | - |
| 1777745152 | 10° C | 89% | 1011.9 hPa | 0 mm | - | 137 W/m² | - |
| 1777744849 | 10° C | 88% | 1011.9 hPa | 0 mm | - | 168 W/m² | - |
| 1777744543 | 10° C | 88% | 1011.4 hPa | 0 mm | - | 193 W/m² | - |
| 1777744239 | 10° C | 87% | 1011.4 hPa | 0 mm | - | 183 W/m² | - |
| 1777743937 | 10° C | 87% | 1011.7 hPa | 0 mm | - | 241 W/m² | - |
| 1777743633 | 10° C | 86% | 1011.9 hPa | 0 mm | - | 267 W/m² | - |
| 1777743330 | 10° C | 86% | 1011.9 hPa | 0 mm | - | 302 W/m² | - |
| 1777743029 | 10° C | 85% | 1011.7 hPa | 0 mm | - | 300 W/m² | - |
| 1777742726 | 10° C | 86% | 1011.9 hPa | 0 mm | - | 379 W/m² | - |
| 1777742421 | 10° C | 86% | 1011.9 hPa | 0 mm | - | 297 W/m² | - |
| 1777742117 | 10° C | 86% | 1011.8 hPa | 0 mm | - | 331 W/m² | - |
| 1777741815 | 10° C | 87% | 1012.1 hPa | 0 mm | - | 321 W/m² | - |
| 1777741511 | 9.44° C | 87% | 1011.9 hPa | 0 mm | - | 239 W/m² | - |
| 1777741209 | 9.44° C | 87% | 1011.9 hPa | 0 mm | - | 265 W/m² | - |
| 1777740905 | 9.44° C | 88% | 1012 hPa | 0 mm | - | 219 W/m² | - |
| 1777740602 | 10° C | 88% | 1012.2 hPa | 0 mm | - | 216 W/m² | - |
| 1777740298 | 10° C | 87% | 1012.4 hPa | 0 mm | - | 161 W/m² | - |
| 1777739995 | 10° C | 87% | 1012.1 hPa | 0 mm | - | 218 W/m² | - |
| 1777739690 | 10° C | 88% | 1012.3 hPa | 0 mm | - | 307 W/m² | - |
| 1777739388 | 10° C | 87% | 1012.3 hPa | 0 mm | - | 360 W/m² | - |
| 1777739085 | 10° C | 87% | 1012.4 hPa | 0 mm | - | 278 W/m² | - |
* Rain latest hour (hover to see other rain measurements)
** Current wind speed in m/s (hover to see current wind gust speed)